Wind_Speed
38 38 32 25 29 38 42 41 38 35 34 36 37 32 26 22 19 19 21 24 27 30 32 31 32 34 34 34 33 30 26 23 22 20 18 20 21 19 14 9 9 10 11 12 13 15 17 20 22 23 23 22 22 21 20 21 22 22 23 25 27 29 31 32 33 34 35 35 33 29 26 26 25 24 24 23 20 18 15 14 15 16 17 18 18 18 19
37 38 34 27 25 29 37 43 39 32 28 28 30 33 33 30 28 26 25 28 30 28 26 28 32 36 36 34 31 26 22 22 24 22 20 21 22 21 17 12 11 11 13 14 15 16 17 19 21 23 25 26 26 24 24 23 23 23 24 25 26 28 30 32 33 34 35 35 31 27 25 25 24 24 23 21 19 17 16 16 17 18 19 19 18 18 18
36 38 37 33 28 23 26 34 32 24 18 17 19 22 27 30 29 26 26 30 31 28 27 28 32 37 37 34 30 25 23 25 27 27 23 20 19 19 17 15 13 13 15 17 18 19 19 19 20 21 24 26 28 28 28 27 25 24 24 24 24 25 27 29 31 32 32 30 27 24 23 23 23 23 21 18 17 16 17 18 19 19 19 20 19 19 18
31 35 36 30 22 17 18 23 24 20 18 17 16 11 9 13 16 19 24 31 30 26 26 31 35 37 37 34 30 25 25 27 27 25 20 17 17 18 17 16 15 16 18 19 20 20 21 21 22 22 22 24 27 29 30 30 28 26 24 22 22 23 24 25 27 27 24 22 22 21 22 23 23 21 18 16 15 16 18 19 19 18 19 21 21 20 20
23 28 33 27 15 8 8 11 14 15 14 14 13 9 5 6 9 11 15 21 25 27 31 36 38 37 35 30 26 25 27 26 22 18 16 17 17 17 16 16 18 19 21 21 21 21 22 23 24 24 23 24 25 27 29 30 29 26 23 20 20 20 20 20 21 20 17 18 19 20 21 22 21 18 16 15 15 16 18 19 19 20 20 22 23 22 22
19 23 29 25 14 5 7 9 4 3 6 8 8 7 5 7 10 11 8 8 16 24 33 39 40 38 33 27 23 25 26 23 19 17 17 18 16 15 15 18 21 21 21 22 22 22 23 25 25 25 25 24 23 24 27 28 28 26 23 20 19 19 18 17 18 17 16 17 17 18 20 20 18 16 16 16 17 18 19 20 21 22 23 23 24 24 24
20 22 23 16 7 6 11 11 6 4 3 3 5 6 3 3 7 10 6 3 8 16 25 35 37 32 27 24 25 26 24 19 17 18 17 16 15 16 18 20 22 21 20 21 23 24 26 26 27 27 25 23 22 23 25 27 28 26 22 18 18 18 17 18 19 17 15 16 17 18 19 18 16 16 16 18 19 19 21 23 24 25 24 24 24 25 26
16 20 18 9 7 9 9 7 4 2 3 5 10 14 13 9 4 2 2 3 7 11 18 28 32 27 24 24 25 24 21 17 16 16 16 16 16 17 18 19 19 17 16 17 19 23 26 27 28 27 24 22 22 23 25 27 27 26 22 18 18 19 18 18 17 15 14 16 18 18 17 16 15 15 17 19 20 21 22 24 26 26 25 26 28 28 26
9 14 15 11 10 9 7 6 5 3 2 2 7 14 15 11 9 7 8 12 14 13 17 26 29 27 24 22 21 20 18 17 17 17 17 17 17 17 17 17 17 16 16 17 17 19 21 24 25 25 23 23 24 25 27 27 26 24 20 17 19 21 19 16 13 12 14 17 17 16 15 15 14 16 18 19 20 22 24 25 27 28 28 28 29 28 26
6 11 13 9 7 7 9 10 6 3 3 3 0 9 15 11 9 9 10 13 16 16 18 23 25 23 21 20 20 19 18 18 19 18 17 16 16 17 16 15 16 18 18 19 19 18 18 19 21 23 24 25 27 29 29 28 25 21 17 15 17 18 16 14 12 11 14 17 17 15 14 14 15 17 19 20 22 24 26 27 28 30 31 32 33 31 25
5 6 8 6 4 8 11 11 8 4 4 4 5 3 10 9 8 10 10 9 9 10 11 14 17 19 20 21 19 18 18 18 18 17 16 16 15 15 15 16 17 18 17 17 18 19 20 19 19 22 25 28 30 31 29 25 21 18 15 14 14 14 14 14 12 13 16 17 16 15 14 14 16 18 19 21 23 25 26 26 27 28 29 31 33 33 27
5 4 8 7 6 9 10 9 9 8 6 2 5 2 8 10 11 13 12 11 11 11 11 13 16 18 20 21 20 18 17 16 16 16 16 16 15 14 15 16 17 17 17 18 19 20 19 18 19 23 28 32 33 31 25 21 18 17 14 13 14 16 15 14 14 15 16 15 14 14 14 15 17 19 21 22 23 25 26 27 27 27 27 27 27 27 27
8 5 5 7 8 9 7 3 3 4 3 1 1 7 13 15 17 18 17 17 17 19 19 19 21 20 20 19 18 18 17 16 16 17 16 15 15 15 15 16 17 19 21 22 22 22 20 20 22 26 31 35 34 27 22 20 17 14 14 18 19 18 16 15 14 13 13 12 13 14 15 17 19 21 23 24 24 25 27 27 27 27 27 26 24 24 27
9 9 6 5 6 4 1 4 5 5 3 3 8 15 18 17 19 21 22 22 22 23 24 23 22 21 20 19 17 16 15 14 14 15 15 15 14 14 15 17 19 21 23 24 24 23 22 22 25 27 31 34 32 29 26 19 15 16 19 22 20 17 15 12 10 10 10 11 13 15 17 19 22 24 25 25 23 26 28 27 26 26 25 25 24 25 27
6 7 6 4 2 3 7 7 6 7 5 2 4 8 13 18 20 21 22 22 21 20 22 21 19 18 17 16 15 13 10 9 11 14 16 16 16 16 17 19 21 24 25 25 24 23 21 22 26 29 31 33 31 28 24 18 19 20 21 20 17 15 12 9 7 8 10 12 14 17 19 21 23 24 25 25 23 25 28 28 28 27 25 25 25 26 26
5 6 7 5 3 3 10 10 4 5 2 6 4 8 10 13 16 17 19 20 19 19 18 16 15 17 17 14 12 10 9 12 16 18 19 19 21 21 22 22 24 25 26 25 24 24 23 24 27 29 29 31 28 21 22 23 21 20 19 17 16 13 9 6 7 9 11 13 16 19 21 22 23 24 25 26 25 26 28 29 29 28 25 25 27 25 23
8 7 9 10 8 6 11 11 6 6 10 13 11 11 13 14 16 18 20 19 19 19 19 18 18 17 13 11 11 13 15 17 18 19 21 23 25 25 24 24 24 23 23 23 23 24 25 26 27 27 27 27 23 19 23 22 20 20 19 19 17 11 7 7 9 11 12 15 18 20 22 23 24 26 27 28 28 28 29 29 29 28 26 25 26 25 23
12 12 13 14 13 12 14 14 12 12 15 17 16 15 15 15 16 19 22 22 21 18 17 20 23 20 15 16 18 21 21 20 20 22 25 27 26 25 25 25 23 21 21 22 22 23 24 25 26 27 26 25 22 23 26 23 19 23 23 18 13 8 8 10 11 13 14 18 21 22 23 25 26 27 27 28 28 28 28 28 28 26 25 24 24 24 24
15 16 17 18 17 16 17 18 18 17 17 18 18 18 18 17 15 15 17 20 24 23 19 18 20 22 25 27 24 23 23 25 27 27 27 26 25 26 26 25 23 21 21 21 21 22 23 25 27 27 24 23 24 25 25 21 18 25 21 13 12 12 12 12 13 15 19 24 27 25 25 26 27 27 27 27 28 27 27 26 26 25 23 22 22 22 22
15 16 18 17 17 16 17 19 20 22 23 23 23 24 23 18 12 11 13 16 22 27 27 22 19 20 27 30 29 27 27 27 27 26 25 25 26 27 27 25 22 20 19 19 20 21 24 26 26 24 22 23 25 25 22 17 18 22 19 17 18 15 11 12 16 19 24 28 29 27 26 27 28 28 28 27 27 27 26 26 25 24 23 22 22 22 22
16 18 19 18 16 18 18 18 18 19 20 22 24 26 26 19 9 5 8 12 16 20 21 20 19 19 21 23 25 25 25 24 24 24 24 26 27 27 26 23 20 18 17 19 20 21 22 23 22 21 21 22 24 25 21 17 20 22 22 24 24 18 15 18 20 22 26 28 28 26 27 28 30 30 29 29 29 28 28 27 26 25 24 22 22 23 24
15 16 18 17 16 17 17 15 15 16 17 21 24 24 24 20 11 4 4 4 7 9 10 12 15 17 18 19 21 22 22 22 23 24 25 26 27 27 26 22 18 18 18 20 20 19 18 19 20 19 20 22 25 26 24 23 25 26 24 25 25 22 23 24 23 24 26 26 27 28 28 29 31 31 31 31 30 30 30 29 27 26 24 23 23 24 25
12 14 17 17 17 16 16 16 18 18 17 21 24 24 22 19 14 9 5 4 6 10 12 14 17 18 19 20 21 22 23 24 24 24 25 25 25 24 23 20 18 18 19 19 20 19 18 19 20 20 21 24 26 28 28 29 28 26 23 23 24 25 25 25 24 25 26 26 28 29 29 29 31 33 33 32 32 32 31 30 29 27 25 25 24 25 25
10 13 16 17 16 16 16 17 20 20 19 20 21 21 20 17 15 15 15 12 13 15 17 18 20 21 22 22 23 24 26 27 27 26 24 23 22 20 19 19 18 18 19 19 19 19 20 21 22 22 23 26 27 29 29 27 24 22 21 22 23 24 25 25 25 26 26 27 29 30 30 30 32 34 34 34 33 33 32 31 30 28 27 26 26 26 26
12 14 15 16 16 16 16 16 16 17 17 16 17 18 17 17 19 19 17 15 16 18 18 18 19 21 22 23 24 26 27 27 28 27 24 22 21 20 18 17 17 17 17 17 17 18 20 21 22 23 25 28 29 29 25 21 20 20 20 21 22 24 26 27 26 26 27 28 30 31 31 31 33 35 35 34 34 34 33 32 30 29 28 27 27 27 27
15 17 18 19 19 18 17 15 13 15 16 15 16 16 15 15 16 17 16 15 17 18 18 18 19 21 23 24 25 26 26 25 24 24 24 23 22 22 20 18 17 17 16 16 16 17 19 21 24 25 26 27 29 27 23 21 22 21 20 21 24 26 27 27 26 27 28 30 31 32 31 32 34 35 35 35 34 33 32 31 30 28 28 27 27 27 27
18 19 20 20 19 18 17 16 15 16 17 17 16 15 14 14 15 16 16 17 18 19 21 23 25 27 27 26 25 24 23 21 20 21 22 23 23 23 21 19 17 17 16 16 15 16 19 22 25 26 26 26 26 25 24 25 25 23 24 25 26 26 26 26 27 28 30 31 32 32 32 33 34 35 36 36 34 33 32 30 29 28 27 27 26 26 25
20 19 19 18 17 16 16 17 18 19 18 17 18 18 17 18 19 19 20 22 23 24 26 28 29 29 28 27 25 22 20 19 18 19 21 23 24 23 21 18 15 14 13 13 14 17 20 23 26 27 27 26 26 26 26 27 26 26 27 27 25 25 26 27 29 30 31 32 32 32 33 33 34 36 37 36 34 33 32 29 28 27 26 26 25 25 23
16 16 16 16 16 16 16 17 17 18 18 19 19 20 21 22 23 24 25 26 27 28 27 27 26 26 26 26 25 24 23 22 21 20 21 22 23 23 22 20 18 16 15 14 16 18 21 24 26 27 29 29 30 29 27 26 25 26 26 25 25 26 28 29 30 31 31 31 31 32 33 33 34 36 36 35 34 33 30 28 27 26 24 24 24 23 22
13 14 15 15 16 16 16 16 17 17 18 20 21 24 26 26 26 25 24 24 24 24 24 23 22 22 23 25 26 26 25 24 23 22 21 21 21 22 23 23 24 22 21 19 19 20 22 24 26 28 31 33 32 29 25 23 22 23 23 24 26 28 29 30 31 31 30 30 31 32 33 33 35 36 35 33 32 31 28 26 25 24 22 21 21 21 22
11 12 14 15 16 17 16 17 18 20 20 21 22 24 25 25 24 23 22 21 21 21 20 20 19 19 21 23 26 27 26 26 25 24 23 23 23 23 24 25 25 23 22 22 23 23 23 23 24 26 29 31 32 33 29 23 20 21 23 25 28 29 30 31 31 31 30 31 32 32 33 34 35 35 34 32 30 28 25 24 23 21 20 19 19 20 21
9 11 13 15 17 19 20 21 22 22 22 22 22 22 22 22 22 21 21 21 21 21 21 20 20 19 19 21 24 27 29 30 29 27 24 23 23 23 23 24 24 24 25 26 26 25 24 24 23 23 24 25 27 30 30 24 19 20 24 27 29 31 31 31 31 31 31 32 32 32 34 35 35 33 31 30 27 24 23 22 20 19 18 19 19 19 20
11 13 15 17 19 20 21 21 21 21 20 20 20 20 20 21 21 22 22 21 21 21 21 22 22 22 21 21 21 23 26 30 32 31 29 27 25 25 25 25 26 27 28 29 29 28 28 27 25 23 23 23 22 24 26 24 22 23 26 28 30 32 32 32 32 31 31 32 32 33 34 33 31 29 29 27 24 22 21 19 17 17 17 18 18 18 19
11 13 14 15 16 18 18 18 18 18 18 18 19 19 20 20 21 22 22 22 22 22 22 22 22 22 23 23 23 23 24 26 28 29 29 29 28 27 27 27 29 30 31 32 32 31 30 28 26 23 21 21 21 21 21 22 23 24 27 29 30 31 31 31 31 31 31 32 32 31 30 27 26 26 26 24 22 20 18 16 16 17 17 18 18 18 18
11 12 12 13 14 16 16 18 18 19 20 20 20 21 22 22 23 24 24 24 25 25 25 24 24 24 24 25 25 25 26 26 26 27 28 28 28 28 28 28 29 30 31 32 32 29 27 27 27 23 21 21 21 19 19 20 21 23 25 27 28 29 30 30 30 30 31 30 29 26 24 23 23 23 22 21 20 19 17 15 16 17 18 18 18 18 18
14 15 15 16 16 17 18 20 21 22 23 23 23 24 25 25 26 26 26 26 27 27 27 26 26 26 26 26 26 26 27 27 28 28 28 29 29 29 27 25 24 26 27 27 25 23 23 25 23 21 20 20 19 18 18 19 21 22 23 25 27 28 29 29 29 28 27 25 23 22 21 20 20 20 19 20 20 19 18 17 16 16 17 17 17 18 18
17 18 19 19 19 20 21 22 23 24 25 25 25 25 25 25 26 26 26 27 27 27 27 27 27 27 27 26 25 25 25 26 27 27 27 26 27 26 24 24 23 23 22 22 20 20 21 22 20 19 20 20 19 19 20 21 21 22 22 23 25 26 26 26 26 25 24 22 20 19 19 19 19 19 20 20 20 19 19 18 16 16 16 17 18 18 19
21 22 24 24 24 24 24 24 24 24 24 23 23 23 23 23 23 23 23 23 24 25 25 25 26 26 25 24 24 24 24 24 25 26 26 25 25 24 24 26 25 22 20 21 22 20 20 19 19 19 20 20 20 20 21 22 22 22 23 23 23 23 23 23 23 23 21 20 19 18 17 18 19 20 20 19 19 18 18 17 17 17 16 17 18 19 21
24 25 25 25 25 25 24 23 22 21 21 20 19 19 20 20 19 20 20 21 23 24 25 25 25 25 24 23 23 23 23 22 23 25 26 25 24 24 25 26 25 23 23 23 21 19 19 19 19 19 19 20 20 21 22 22 22 22 22 22 22 22 21 21 21 20 19 19 18 18 18 18 19 19 19 18 17 17 16 17 18 18 18 17 17 18 20
23 22 22 22 22 22 22 20 18 17 18 17 16 16 17 17 17 18 18 19 20 22 23 23 23 23 23 22 21 22 22 22 23 24 23 23 23 23 23 24 24 24 23 22 21 20 20 20 19 18 19 20 21 21 22 22 22 21 21 21 21 21 20 20 19 18 17 17 18 18 18 17 17 17 17 17 17 17 17 17 17 18 19 18 17 16 17
19 19 19 18 18 17 17 15 14 14 15 15 15 15 15 15 15 15 15 15 16 17 18 18 18 19 20 20 20 20 21 22 22 23 24 25 22 19 18 19 20 19 18 18 19 19 18 18 18 18 19 20 21 22 22 21 20 20 21 20 20 20 19 18 18 17 16 16 17 18 18 18 17 18 18 19 19 19 19 19 19 19 19 19 18 16 15
16 15 14 14 13 13 13 12 11 11 12 13 13 13 14 14 14 14 14 14 15 15 15 15 15 15 16 17 17 18 19 19 20 21 23 22 18 13 13 16 18 18 18 18 18 17 16 17 18 19 19 19 20 21 21 20 20 20 20 19 18 16 16 15 15 16 17 17 17 17 18 19 19 20 20 20 21 21 22 22 22 22 22 21 20 19 17
14 13 12 11 10 10 10 10 10 10 11 12 12 12 12 13 14 14 14 14 14 14 14 13 13 12 12 12 13 14 15 16 18 18 17 13 11 11 13 16 18 18 18 18 17 16 16 16 16 16 17 18 18 17 18 18 19 18 17 16 15 14 15 16 16 17 19 19 20 20 21 22 22 23 23 23 24 24 24 25 25 24 24 24 23 22 22
13 13 12 11 11 10 10 10 10 10 10 11 11 12 12 12 14 14 14 13 12 12 12 11 10 10 10 9 9 10 10 11 13 13 10 7 8 10 13 15 17 18 18 17 16 16 16 15 14 14 15 15 15 14 15 16 17 16 16 15 14 14 15 16 17 18 19 21 22 23 24 24 25 26 27 27 28 27 27 27 27 27 27 27 27 27 26
12 12 12 12 12 12 12 12 11 11 10 10 10 10 10 11 13 13 13 12 11 11 10 10 9 8 9 8 8 9 9 9 10 9 8 8 10 12 14 15 17 16 15 14 14 13 13 12 12 12 12 12 12 12 13 14 15 14 14 14 14 14 14 15 15 17 19 20 21 22 23 24 25 27 28 29 29 30 30 30 30 30 30 30 31 31 30
12 12 12 12 12 13 13 13 13 13 12 12 11 10 9 9 10 11 10 9 8 8 8 8 8 8 8 8 8 8 9 10 10 10 10 10 11 12 13 14 14 14 13 13 13 12 11 10 11 11 11 11 11 11 12 12 13 13 13 14 15 15 15 15 16 18 19 20 20 21 22 23 25 26 28 29 29 30 31 32 33 33 33 33 33 32 31
11 12 12 12 12 12 12 12 12 11 11 10 10 9 8 8 9 9 9 9 8 7 6 6 6 7 7 7 7 7 7 8 9 9 8 8 8 8 8 8 8 9 9 10 11 11 10 10 11 11 11 11 11 11 12 13 13 13 14 14 15 16 17 18 19 21 22 22 22 22 22 23 24 26 27 28 28 29 30 31 33 33 34 34 34 32 29
9 10 12 12 11 10 10 11 10 9 8 7 7 8 8 8 8 8 8 8 8 8 6 5 6 6 7 7 7 7 7 8 8 8 8 8 8 7 6 5 5 6 6 7 8 9 10 10 11 11 11 12 12 12 13 14 14 14 14 14 16 17 20 21 22 23 24 24 24 23 22 23 24 26 26 26 26 27 28 29 29 30 30 31 31 29 27
6 8 10 11 11 10 10 10 9 8 8 7 7 7 8 8 8 8 8 7 7 7 6 6 7 7 7 7 8 9 9 9 9 9 8 9 9 9 7 6 6 7 8 9 9 10 11 11 11 11 12 12 13 13 14 14 15 15 16 17 18 21 23 24 25 25 24 24 24 25 25 25 26 26 25 25 25 26 26 26 26 26 27 28 28 26 23
5 5 6 8 9 9 10 11 11 9 9 9 8 8 8 9 9 9 9 9 8 8 8 8 8 8 8 8 9 10 10 10 10 10 9 9 9 10 10 8 8 9 10 11 11 11 12 13 13 13 13 13 13 14 15 15 16 17 19 21 23 24 25 26 26 25 24 25 27 29 30 29 27 25 25 25 25 25 25 25 25 25 26 26 25 23 21
7 7 6 8 9 10 11 13 14 13 12 12 11 9 9 10 11 12 12 12 12 11 10 10 10 10 10 10 10 10 10 10 11 12 11 11 10 11 11 11 10 10 11 12 12 13 14 14 14 14 14 14 15 15 16 16 17 19 22 24 25 26 26 27 28 28 27 28 29 30 30 27 23 22 23 25 25 25 25 24 24 24 24 23 22 20 19
9 10 10 11 12 14 16 17 18 18 18 18 16 14 13 13 13 14 15 15 14 13 13 13 12 13 13 13 14 14 13 13 12 12 13 13 13 13 14 15 14 13 12 13 14 16 16 16 16 17 17 17 17 17 18 18 20 21 23 25 26 27 29 31 32 31 30 28 28 28 27 24 20 19 21 23 25 25 25 24 23 24 23 23 22 21 20
Wind_Direction
231 234 238 234 222 215 214 217 218 218 221 224 226 230 231 228 230 231 216 203 202 198 196 203 207 208 212 211 209 208 204 201 201 202 207 210 213 223 237 265 293 291 290 287 273 267 266 261 255 250 249 252 253 251 247 244 243 244 246 249 250 252 254 256 257 255 256 260 262 267 280 291 293 296 305 313 322 334 340 340 339 336 335 334 332 333 333
230 229 232 234 225 213 212 213 215 220 224 225 230 232 231 234 243 248 235 222 222 223 228 236 226 217 215 212 206 202 199 202 203 201 208 215 216 222 238 270 293 289 288 287 278 269 264 262 259 253 250 250 251 251 251 250 247 246 246 248 250 252 253 255 254 253 256 260 263 273 286 289 289 296 305 314 326 336 338 335 332 330 330 330 328 327 325
226 227 230 233 231 222 212 207 210 222 230 238 251 244 233 233 239 244 239 228 226 233 242 240 223 212 212 209 205 203 201 200 199 199 209 218 222 230 250 273 282 284 286 283 280 276 270 267 266 261 256 254 252 253 253 254 254 252 251 251 252 253 254 254 255 256 260 266 271 280 284 283 287 297 307 319 329 335 335 331 328 326 326 325 324 324 322
219 222 226 225 220 218 214 210 218 232 231 234 254 257 231 225 232 236 228 221 226 237 235 221 210 205 205 203 200 197 194 195 199 205 214 223 232 242 254 264 272 284 289 284 279 277 272 269 269 266 262 258 256 256 256 256 257 254 251 250 251 253 255 256 258 260 267 275 279 278 277 281 290 300 311 323 329 330 329 326 324 322 321 319 320 323 322
200 206 212 209 196 191 203 208 225 235 224 219 231 236 228 224 228 233 227 226 235 238 224 210 200 194 193 195 196 194 194 198 203 212 224 230 236 243 251 262 275 285 287 284 279 270 264 266 269 269 266 261 258 259 259 259 258 254 250 248 250 254 258 261 263 264 269 273 271 270 275 283 293 301 313 322 323 323 321 317 316 316 315 315 316 317 319
192 191 198 202 201 170 121 120 135 201 195 196 208 216 244 258 247 247 252 244 239 231 219 207 198 193 195 198 200 199 200 202 204 212 224 231 237 250 264 275 280 280 281 281 276 267 261 263 267 269 268 263 258 257 257 257 254 251 249 247 250 256 260 261 262 264 265 263 262 268 276 284 293 303 313 318 318 317 314 310 310 311 309 309 310 312 315
189 186 191 199 196 141 120 111 86 50 78 110 95 90 71 330 271 258 256 212 215 218 209 201 195 194 196 197 197 200 203 206 209 214 222 231 244 261 273 279 279 278 278 276 271 267 264 265 266 267 266 262 258 256 254 251 250 250 249 246 249 254 255 258 262 261 256 254 260 270 278 286 296 305 312 314 313 311 308 305 305 304 302 303 304 305 308
169 177 183 176 135 127 115 112 124 91 82 96 89 88 86 73 57 280 262 186 206 208 192 188 191 193 193 190 192 196 198 201 209 217 226 237 251 262 270 274 274 276 281 279 272 267 264 263 264 263 260 256 257 259 255 249 247 248 247 244 246 250 253 256 257 251 248 254 263 271 279 289 298 306 309 310 309 306 302 301 299 297 296 297 296 294 297
137 147 147 129 124 120 78 73 117 124 104 119 100 100 102 97 100 117 133 147 163 180 182 183 190 194 194 192 194 197 202 210 221 230 239 248 261 269 273 274 273 277 288 291 283 272 266 263 261 259 255 253 254 255 252 246 242 243 243 241 243 248 250 243 232 232 247 257 263 269 279 290 298 302 303 301 299 295 291 289 289 288 286 286 286 285 289
114 113 113 112 119 101 69 73 97 136 186 229 223 110 118 126 133 137 143 148 151 160 173 181 189 197 202 205 210 214 220 228 235 240 248 260 271 276 277 279 280 284 294 297 289 277 270 265 259 254 252 251 250 248 245 241 239 240 245 247 243 239 231 216 207 223 244 251 257 266 277 287 293 294 295 296 297 297 294 291 292 293 288 281 275 271 273
146 110 101 106 109 93 83 81 88 112 160 222 258 147 121 136 171 179 188 198 191 187 193 200 209 218 218 212 211 215 218 224 234 244 258 271 275 275 274 277 281 288 297 301 295 285 275 269 266 262 257 252 248 243 238 236 239 244 249 246 228 209 202 202 205 220 234 243 254 266 276 287 294 295 298 303 305 305 304 302 303 304 300 292 283 275 270
162 121 103 107 116 116 105 89 88 101 110 176 255 211 126 146 173 178 188 206 211 210 211 209 207 211 211 205 203 208 214 224 245 265 279 283 280 279 278 277 283 291 296 300 300 294 283 276 273 266 260 256 252 242 229 227 239 246 237 216 198 192 198 205 209 220 234 248 263 276 289 299 301 300 302 305 306 306 304 301 301 304 308 309 305 296 289
198 190 126 96 101 122 136 140 122 120 95 45 166 136 131 149 167 172 182 188 183 182 186 187 189 195 202 206 209 215 222 238 261 276 283 285 282 282 283 285 292 296 297 298 298 294 289 283 275 269 268 269 264 249 232 229 231 221 196 186 189 197 204 208 215 229 249 268 283 295 305 308 305 302 302 302 303 305 303 298 300 306 309 308 307 305 299
182 192 175 125 99 93 236 250 254 266 287 74 114 131 136 150 166 172 176 176 174 178 183 185 190 195 196 200 208 217 229 248 268 278 282 284 285 286 287 292 298 301 301 301 299 298 298 294 291 290 294 296 285 260 243 227 200 183 183 189 195 201 205 213 229 251 274 289 299 308 311 309 307 306 305 305 304 305 303 299 302 307 307 302 301 303 301
148 165 166 158 130 342 302 283 303 308 291 124 132 159 154 154 163 171 176 178 179 182 184 185 191 193 190 196 208 219 238 266 282 286 284 283 286 289 290 294 301 306 308 306 302 302 299 296 298 300 308 314 298 261 226 187 171 184 194 197 200 206 214 230 254 276 291 299 305 311 311 310 311 309 309 311 311 306 303 301 303 305 304 300 300 300 297
158 140 125 131 149 272 269 264 318 17 111 149 185 223 202 181 177 178 179 181 183 190 194 190 184 185 190 197 207 221 256 284 290 291 287 282 284 287 290 297 304 308 310 306 301 299 298 297 299 301 307 313 297 247 190 161 173 196 205 209 214 219 229 256 281 288 297 304 308 312 314 315 317 316 315 317 315 308 305 305 305 305 303 300 298 297 294
187 158 143 150 160 196 233 231 198 150 158 159 167 187 194 195 197 196 194 188 181 189 204 204 189 185 200 226 246 269 290 293 286 282 278 277 280 284 290 299 305 304 302 298 294 295 297 297 299 302 307 307 285 227 178 163 182 204 217 224 225 228 241 262 277 283 291 302 309 315 319 320 321 321 320 320 318 315 314 313 311 308 304 298 295 293 292
173 165 166 174 183 202 224 227 213 193 179 173 177 186 189 191 196 204 214 217 208 200 206 208 201 203 230 261 277 286 288 279 267 265 270 273 277 284 291 298 301 293 288 288 288 292 296 297 301 305 305 300 275 224 185 169 192 221 228 220 211 221 243 254 268 281 295 310 317 321 323 323 321 321 320 320 319 318 317 315 311 306 302 297 293 293 293
161 155 163 179 191 205 222 231 230 224 212 201 200 200 197 196 197 204 220 232 228 220 218 217 215 226 244 258 271 276 271 266 266 268 271 274 280 289 293 296 293 285 283 287 290 295 299 300 304 308 303 294 276 238 198 176 202 228 226 206 202 224 242 256 272 284 298 309 313 316 320 321 320 319 319 320 321 320 316 313 309 305 302 299 295 293 293
167 159 164 181 194 200 208 216 220 222 220 214 209 207 208 214 229 236 236 240 238 234 236 241 248 254 254 256 261 263 262 266 269 272 277 282 287 292 293 292 288 284 286 290 293 299 302 300 303 307 300 288 273 246 215 189 198 210 205 199 211 229 256 275 278 285 293 296 297 303 314 319 319 318 317 318 321 321 317 312 309 308 306 303 299 295 293
165 167 173 185 194 195 197 204 209 217 226 229 227 226 223 219 220 242 247 250 253 252 250 251 257 260 255 251 254 259 264 270 274 278 284 288 290 291 290 287 286 285 287 291 293 298 301 299 301 305 298 280 256 235 219 203 199 202 207 213 218 234 265 275 278 284 286 284 286 294 307 315 319 318 315 315 319 322 320 316 312 309 307 304 299 295 293
175 178 185 193 198 198 201 212 219 226 240 244 241 236 228 219 218 260 299 272 259 256 255 253 254 255 256 257 260 264 269 275 280 284 288 290 289 289 287 284 285 285 287 291 295 297 298 297 297 296 285 262 238 222 213 208 206 210 218 225 232 248 265 271 276 279 276 276 282 289 299 311 318 319 317 316 318 320 321 319 314 309 306 302 298 294 293
191 187 189 195 206 212 216 222 222 221 225 230 232 235 239 243 252 259 241 232 263 271 268 265 263 263 266 271 274 276 279 282 286 290 292 290 288 287 285 284 283 283 286 291 296 297 294 291 290 283 265 246 230 219 213 214 219 223 231 243 255 264 270 271 271 271 272 277 285 291 299 309 317 319 318 317 319 320 320 319 315 309 306 302 298 295 293
182 180 186 194 203 208 211 216 218 219 222 226 228 233 240 242 236 225 221 237 261 266 262 262 265 268 273 278 283 287 290 291 294 297 295 290 286 286 288 287 284 284 289 294 298 299 297 292 286 274 254 236 226 220 218 224 238 248 254 262 267 269 270 270 269 270 276 283 289 295 301 308 314 317 316 317 319 319 318 316 313 309 305 303 300 298 295
188 182 188 197 200 202 208 214 215 217 221 223 223 227 232 233 231 232 235 241 246 247 250 256 264 271 278 284 288 292 296 297 298 298 295 289 286 286 289 291 290 291 295 297 298 300 297 287 271 253 236 225 222 222 224 241 265 273 270 271 272 270 270 269 268 273 281 287 293 298 300 305 311 313 314 316 318 317 315 314 311 308 305 303 301 298 296
195 192 195 200 201 202 206 207 207 213 219 220 222 227 232 235 237 236 233 230 234 243 253 261 268 275 282 287 289 292 294 294 293 293 291 289 287 287 288 288 289 290 294 298 299 298 293 278 259 245 237 237 240 243 249 265 280 281 275 275 275 271 268 268 270 278 285 290 294 297 299 303 308 310 312 315 316 315 313 311 308 306 305 303 300 297 296
186 191 192 193 193 196 200 203 210 220 225 228 232 236 238 240 243 244 245 247 254 262 269 274 278 281 284 285 286 285 284 282 281 283 286 288 289 289 288 288 288 289 292 296 297 292 285 274 263 257 257 257 259 262 266 273 276 274 273 275 274 269 267 271 277 283 287 290 292 294 296 301 305 308 311 313 313 312 310 308 305 304 303 301 298 296 294
178 184 187 189 193 199 207 214 221 228 234 240 247 252 255 256 258 261 265 269 273 275 277 278 279 280 281 280 277 273 270 268 268 270 275 281 285 286 288 291 294 292 289 289 287 281 272 266 262 263 264 264 263 265 267 270 271 270 271 274 272 268 270 275 280 284 287 288 290 292 295 300 304 307 309 310 310 309 307 305 304 303 301 299 297 295 293
181 188 194 200 209 216 222 228 233 238 243 250 256 262 266 270 272 274 275 276 276 274 273 272 272 272 272 270 268 265 263 264 265 265 267 271 275 278 282 286 286 281 276 275 275 274 271 268 267 267 266 265 266 267 268 268 268 269 271 271 270 270 275 279 282 285 286 287 290 294 297 301 304 307 308 308 306 305 304 303 302 302 301 299 297 295 291
202 207 213 221 231 238 245 250 256 261 264 266 268 270 271 273 274 274 274 273 271 269 268 266 264 261 259 259 262 264 264 265 265 265 265 265 267 270 274 277 279 279 279 279 280 282 281 279 278 277 273 267 262 261 261 260 261 263 266 269 273 277 281 283 284 285 287 289 293 296 298 301 304 305 305 304 302 301 301 301 301 302 301 299 296 292 287
225 231 239 247 252 257 262 266 269 273 274 274 274 274 273 272 272 270 269 269 269 269 269 268 265 260 256 255 256 259 262 264 265 265 265 267 269 271 274 277 279 278 278 281 285 286 282 279 280 284 283 275 266 258 252 246 248 256 263 269 274 278 280 282 283 285 288 291 293 295 297 300 303 303 301 300 298 298 299 299 300 301 300 297 292 287 283
231 238 245 251 255 258 262 266 268 269 270 269 271 273 274 275 274 273 271 271 271 272 273 272 270 267 262 257 254 255 258 261 264 264 265 266 267 268 271 274 275 275 277 281 284 282 280 279 281 287 292 291 283 271 260 251 250 257 263 268 272 275 277 280 282 285 288 291 293 295 297 299 300 299 297 295 295 296 297 298 298 298 296 293 290 285 282
239 246 251 257 261 263 266 268 269 270 271 272 273 275 277 279 280 280 280 279 277 276 275 273 271 270 267 264 260 257 256 258 261 263 265 266 267 266 266 267 268 270 273 276 276 278 280 282 281 282 287 290 287 278 270 265 264 264 264 268 272 275 277 280 282 284 287 290 292 294 295 297 297 295 292 292 294 296 296 296 295 293 292 289 286 283 280
270 269 269 270 271 272 272 273 275 277 278 279 279 280 280 281 282 283 283 283 282 280 278 277 276 275 273 270 267 264 261 260 261 263 264 266 266 266 265 265 265 267 269 272 274 276 278 277 275 276 279 279 277 275 273 273 272 270 269 271 275 277 278 280 283 285 288 290 291 292 293 294 293 291 290 292 295 296 295 292 289 287 286 284 282 280 277
291 291 292 292 290 287 284 283 282 282 282 282 282 281 281 280 280 280 281 281 281 280 278 277 275 273 272 271 270 268 266 264 263 264 265 267 267 267 266 265 266 266 267 268 270 272 272 269 269 269 269 269 272 275 275 275 275 275 276 277 279 280 281 283 285 286 288 289 290 291 292 292 291 290 291 293 295 293 289 283 280 279 279 279 278 277 276
292 294 296 295 293 291 290 290 288 287 286 285 282 280 278 278 277 277 278 278 279 278 277 275 273 271 269 269 268 267 266 263 261 260 260 261 264 268 270 270 269 268 268 268 270 271 271 271 272 273 273 274 278 279 278 277 277 278 279 280 281 282 283 284 285 286 287 288 288 289 290 290 289 290 290 290 290 289 286 280 276 273 274 274 274 274 275
295 295 298 299 297 296 295 294 292 291 290 289 288 286 285 284 283 282 281 280 279 279 279 279 278 276 274 273 271 269 267 264 258 253 250 253 259 264 268 269 267 265 271 280 286 283 278 277 281 283 283 285 286 285 283 282 281 281 281 282 282 282 283 284 285 285 285 286 287 288 289 289 289 289 288 287 286 287 286 284 281 277 273 273 273 272 272
303 303 304 304 302 300 298 295 293 292 290 289 290 292 294 294 293 292 290 288 285 283 281 280 280 280 280 279 277 273 271 268 261 250 244 247 255 260 263 267 268 268 276 286 289 284 278 276 278 278 279 282 284 284 283 283 281 280 280 280 280 281 281 281 281 282 283 285 287 287 286 286 286 286 286 285 285 285 286 286 285 283 280 278 276 274 272
305 306 305 303 302 300 298 296 294 292 290 289 291 294 297 298 298 298 297 294 291 288 285 283 282 282 283 283 281 277 274 272 266 257 249 248 251 257 263 269 275 279 280 280 276 270 266 267 271 275 279 282 284 283 282 281 279 279 279 279 278 279 278 278 279 281 283 284 285 285 284 284 284 283 283 282 280 281 281 283 285 288 288 285 281 278 277
308 309 307 305 304 301 299 298 294 288 286 288 291 293 295 297 298 299 298 295 293 292 290 288 286 283 282 281 281 278 274 270 269 269 267 258 250 250 259 269 276 278 276 271 266 263 264 268 274 279 282 284 283 281 280 280 280 280 280 279 278 279 280 280 282 284 284 285 285 285 284 283 282 279 277 275 274 277 281 284 288 291 292 289 285 282 282
320 320 319 317 316 312 308 304 297 289 286 289 290 292 294 297 301 302 302 300 299 300 299 297 292 285 278 274 273 273 274 273 272 275 274 267 257 251 257 269 274 273 268 263 261 262 267 272 276 278 278 279 279 278 279 280 281 280 279 279 280 283 284 286 288 290 289 287 286 285 285 285 283 279 275 274 276 280 285 288 290 293 293 291 290 289 291
333 335 333 332 331 328 324 320 311 301 297 296 296 298 300 302 306 309 308 305 305 306 307 307 303 295 286 279 273 270 271 272 273 271 269 267 264 263 265 269 269 266 263 261 261 264 270 275 277 276 275 273 273 275 278 280 280 279 280 283 284 284 285 285 285 286 286 285 285 285 286 286 285 284 283 284 286 288 289 290 291 292 293 294 295 299 306
347 352 353 349 343 339 334 328 321 313 309 307 308 309 308 306 308 310 309 306 306 308 311 312 311 307 301 291 281 275 272 271 273 272 267 261 261 263 265 267 268 268 269 271 274 278 281 279 275 272 270 268 268 271 274 276 277 277 278 279 278 277 278 280 281 284 287 290 291 292 291 290 289 289 289 288 288 288 288 289 290 292 294 297 300 304 310
360 5 9 9 6 360 352 342 331 323 318 314 312 312 312 312 312 312 310 308 309 312 314 313 313 317 317 306 294 291 288 279 276 276 273 263 258 259 259 263 266 269 272 277 280 281 279 273 267 266 268 268 267 269 271 273 275 275 274 274 275 277 280 284 289 292 294 294 294 294 294 293 293 293 292 290 289 289 289 290 292 294 296 299 300 302 305
2 7 12 15 15 12 9 6 3 357 350 340 330 326 325 325 323 320 316 313 311 312 313 310 306 310 315 311 301 298 296 289 284 283 280 273 268 265 264 265 267 269 272 276 276 274 271 268 268 270 271 269 270 273 274 274 275 277 278 279 279 278 279 285 292 296 296 294 293 292 293 293 292 291 290 289 288 288 289 289 291 292 294 294 295 297 299
360 4 6 9 9 6 5 8 13 14 11 6 2 360 358 353 349 346 344 339 331 325 320 315 309 307 308 307 302 297 292 289 287 286 282 279 276 273 271 271 272 273 272 270 269 269 270 271 274 275 275 274 275 277 277 277 279 281 282 280 276 275 276 280 285 290 291 291 289 289 289 289 289 287 284 283 281 281 280 281 282 283 285 287 288 289 292
3 5 4 4 3 358 355 357 2 5 5 4 5 5 3 359 358 2 7 8 4 358 347 336 330 326 321 316 312 308 301 297 294 289 282 278 277 277 276 277 277 274 267 261 260 263 266 268 273 276 278 279 281 281 282 283 285 283 279 275 273 275 279 283 285 287 287 286 285 284 285 287 288 286 283 280 277 275 274 274 274 275 277 279 280 282 283
10 12 5 359 355 352 349 348 347 346 346 348 353 354 351 347 347 352 358 3 6 5 0 350 341 336 331 323 318 315 314 312 307 298 287 280 280 282 282 276 269 263 256 254 259 265 268 270 276 280 281 283 285 285 284 283 281 278 275 274 277 283 290 294 294 292 290 288 286 285 287 291 293 292 286 281 277 275 274 273 273 273 272 273 275 276 275
358 8 4 357 351 349 347 343 338 334 333 334 337 338 337 334 333 334 336 340 346 348 345 337 330 325 321 317 313 313 316 317 312 303 292 285 282 282 280 270 260 259 261 265 270 274 274 274 278 282 284 284 284 283 282 282 281 280 281 284 288 292 295 296 295 294 293 293 293 295 297 301 301 296 288 281 277 275 274 275 275 275 274 274 273 272 268
339 358 1 353 345 343 342 341 339 339 339 337 333 327 323 323 322 318 314 315 319 321 319 317 315 313 310 307 305 306 309 310 307 301 295 289 285 286 288 284 275 269 269 272 275 277 278 279 282 284 284 283 283 284 285 286 286 287 289 292 293 294 296 299 300 300 300 301 302 302 304 305 301 293 286 280 277 275 275 275 275 276 277 275 270 263 257
340 337 332 331 334 338 338 336 337 339 340 338 336 331 323 319 316 311 308 310 312 309 303 298 295 296 295 293 293 293 295 296 296 296 296 293 290 288 289 287 281 274 272 272 272 272 275 279 284 287 289 290 290 290 290 289 289 290 291 292 291 293 298 305 310 311 308 306 304 303 303 302 296 286 281 281 279 278 277 276 274 275 275 269 258 249 246
328 318 315 321 330 333 330 326 326 329 332 332 333 332 328 321 315 310 307 308 308 303 295 288 287 289 290 289 288 288 287 286 286 290 293 294 294 292 290 289 286 282 277 275 275 277 281 285 287 289 293 294 293 291 291 291 291 289 288 288 290 295 302 309 313 314 312 309 305 303 302 301 294 283 278 279 279 278 277 274 270 269 267 259 248 242 240
Height
3094 3096 3097 3099 3100 3099 3101 3103 3104 3105 3107 3107 3108 3109 3112 3114 3115 3115 3117 3118 3118 3120 3122 3123 3124 3125 3125 3126 3127 3130 3133 3136 3138 3140 3142 3143 3145 3146 3147 3148 3148 3149 3150 3151 3151 3151 3152 3152 3152 3153 3153 3153 3154 3155 3156 3156 3156 3157 3157 3158 3159 3160 3161 3161 3162 3163 3163 3163 3163 3164 3164 3165 3164 3163 3162 3160 3159 3157 3156 3156 3155 3154 3153 3152 3151 3149 3148
3090 3092 3094 3096 3098 3097 3098 3100 3101 3103 3104 3105 3106 3107 3109 3110 3112 3113 3114 3114 3114 3116 3118 3120 3121 3122 3123 3125 3127 3130 3132 3135 3136 3138 3140 3141 3142 3143 3144 3145 3145 3146 3146 3147 3147 3148 3148 3148 3148 3149 3149 3150 3150 3151 3152 3152 3153 3154 3154 3155 3156 3157 3157 3158 3160 3160 3160 3160 3161 3161 3162 3162 3161 3160 3159 3157 3156 3155 3154 3154 3153 3152 3151 3150 3149 3148 3147
3086 3088 3091 3093 3095 3096 3097 3098 3100 3101 3102 3103 3104 3104 3105 3106 3108 3110 3110 3110 3111 3113 3116 3117 3120 3122 3124 3125 3127 3129 3131 3133 3135 3136 3138 3139 3140 3142 3142 3142 3142 3143 3143 3143 3144 3144 3144 3145 3145 3145 3145 3146 3146 3147 3147 3148 3149 3150 3151 3152 3153 3154 3154 3156 3156 3157 3157 3157 3158 3159 3160 3159 3158 3157 3156 3154 3153 3152 3152 3151 3150 3149 3149 3148 3147 3146 3145
3082 3085 3088 3090 3092 3094 3095 3096 3098 3099 3099 3101 3102 3102 3102 3103 3105 3107 3107 3107 3109 3112 3114 3115 3117 3120 3121 3123 3125 3127 3129 3131 3132 3134 3135 3136 3138 3139 3140 3140 3140 3140 3140 3140 3140 3140 3141 3141 3141 3141 3142 3142 3142 3142 3143 3144 3145 3146 3147 3149 3150 3150 3151 3152 3153 3153 3154 3155 3156 3157 3157 3157 3156 3154 3152 3152 3151 3150 3149 3148 3148 3147 3147 3146 3144 3144 3143
3079 3082 3085 3087 3089 3091 3092 3093 3095 3095 3095 3097 3099 3099 3100 3101 3103 3104 3105 3105 3107 3109 3110 3112 3114 3117 3119 3121 3123 3125 3127 3129 3130 3132 3133 3134 3135 3137 3138 3138 3138 3137 3137 3136 3136 3136 3137 3137 3137 3137 3138 3138 3138 3138 3139 3140 3140 3142 3143 3145 3146 3147 3148 3149 3150 3151 3152 3154 3154 3155 3155 3154 3152 3151 3150 3149 3149 3148 3147 3146 3146 3145 3144 3143 3142 3141 3140
3076 3079 3081 3083 3086 3088 3090 3091 3092 3093 3092 3093 3095 3096 3098 3099 3100 3101 3102 3104 3106 3107 3109 3111 3114 3116 3119 3121 3123 3124 3126 3128 3129 3130 3131 3132 3133 3134 3134 3134 3134 3134 3134 3133 3133 3133 3133 3133 3133 3133 3133 3134 3134 3135 3135 3135 3136 3138 3139 3141 3142 3143 3145 3146 3147 3148 3150 3151 3152 3152 3152 3151 3149 3148 3148 3147 3146 3145 3145 3144 3144 3143 3142 3140 3139 3137 3136
3073 3076 3078 3081 3084 3086 3087 3089 3091 3092 3092 3092 3093 3094 3096 3097 3098 3098 3099 3102 3104 3106 3109 3113 3117 3120 3121 3122 3123 3125 3126 3127 3128 3129 3130 3131 3132 3132 3132 3131 3131 3130 3130 3130 3130 3130 3129 3129 3129 3129 3130 3130 3131 3131 3132 3132 3132 3134 3136 3137 3138 3139 3141 3141 3142 3144 3147 3148 3149 3149 3149 3147 3146 3146 3145 3145 3144 3144 3143 3142 3141 3140 3139 3137 3135 3134 3133
3071 3072 3075 3078 3082 3084 3086 3087 3088 3091 3092 3092 3093 3094 3096 3097 3097 3097 3098 3100 3102 3104 3107 3112 3117 3121 3122 3123 3124 3125 3126 3127 3128 3128 3129 3130 3130 3130 3130 3129 3128 3127 3127 3127 3126 3127 3126 3126 3125 3125 3126 3127 3128 3128 3129 3129 3129 3130 3132 3134 3135 3135 3136 3138 3139 3142 3144 3145 3146 3146 3145 3144 3143 3143 3143 3142 3142 3141 3140 3139 3138 3137 3135 3133 3132 3130 3129
3070 3069 3072 3076 3080 3083 3085 3085 3086 3089 3092 3092 3093 3094 3097 3099 3100 3100 3099 3100 3102 3104 3106 3109 3113 3118 3121 3123 3123 3123 3124 3125 3126 3127 3127 3127 3127 3126 3127 3127 3126 3125 3125 3124 3124 3124 3123 3122 3122 3122 3123 3124 3125 3124 3124 3124 3125 3126 3129 3131 3132 3132 3134 3136 3138 3139 3141 3142 3143 3142 3141 3140 3140 3139 3140 3140 3139 3138 3137 3136 3134 3133 3131 3130 3128 3126 3125
3071 3070 3072 3075 3079 3083 3085 3085 3086 3088 3090 3091 3092 3094 3097 3100 3101 3102 3102 3102 3103 3105 3107 3109 3112 3116 3119 3121 3121 3121 3122 3122 3123 3124 3124 3124 3123 3123 3123 3124 3124 3123 3122 3122 3121 3121 3120 3120 3120 3120 3120 3121 3120 3119 3119 3120 3121 3123 3126 3128 3129 3131 3133 3134 3135 3136 3139 3140 3140 3139 3138 3137 3136 3136 3136 3136 3136 3134 3133 3132 3131 3129 3128 3126 3124 3121 3119
3071 3071 3072 3075 3079 3083 3085 3086 3087 3088 3089 3090 3092 3094 3097 3100 3101 3103 3103 3104 3104 3106 3108 3110 3112 3115 3116 3117 3118 3119 3119 3119 3120 3121 3121 3121 3120 3120 3120 3121 3121 3121 3120 3119 3119 3118 3118 3118 3118 3118 3118 3117 3116 3115 3115 3116 3118 3121 3124 3125 3127 3129 3132 3132 3132 3134 3136 3137 3136 3135 3134 3133 3132 3132 3132 3132 3131 3131 3129 3128 3127 3126 3124 3121 3119 3117 3115
3071 3072 3073 3075 3078 3081 3083 3084 3086 3087 3088 3089 3091 3094 3097 3099 3101 3102 3103 3104 3105 3106 3107 3109 3111 3113 3114 3114 3115 3116 3117 3118 3118 3118 3118 3117 3117 3117 3117 3118 3119 3119 3118 3117 3117 3116 3116 3117 3117 3116 3114 3112 3112 3112 3112 3113 3116 3119 3121 3123 3125 3128 3129 3128 3129 3131 3133 3133 3132 3130 3129 3128 3128 3127 3126 3126 3126 3126 3125 3124 3122 3121 3119 3117 3116 3115 3115
3070 3071 3072 3074 3077 3079 3081 3082 3083 3085 3087 3089 3091 3094 3096 3098 3100 3101 3102 3102 3103 3105 3106 3107 3109 3110 3111 3112 3113 3114 3115 3116 3116 3115 3115 3114 3114 3114 3114 3115 3116 3116 3115 3115 3114 3114 3114 3114 3114 3113 3111 3110 3110 3111 3110 3111 3113 3117 3120 3122 3124 3125 3125 3125 3127 3128 3128 3128 3127 3126 3125 3125 3124 3123 3122 3122 3121 3121 3120 3119 3118 3116 3115 3114 3112 3112 3111
3069 3071 3072 3073 3076 3078 3079 3080 3081 3084 3087 3089 3091 3094 3097 3098 3099 3100 3100 3101 3102 3103 3104 3105 3106 3107 3108 3109 3110 3111 3113 3114 3113 3113 3112 3111 3111 3111 3112 3113 3113 3113 3113 3112 3111 3111 3112 3112 3111 3110 3110 3109 3109 3111 3111 3111 3113 3117 3120 3121 3122 3122 3122 3123 3124 3124 3124 3123 3122 3122 3122 3121 3120 3118 3117 3117 3116 3115 3114 3114 3113 3112 3111 3110 3108 3107 3106
3068 3069 3070 3072 3075 3075 3075 3077 3080 3083 3086 3089 3092 3094 3097 3098 3099 3099 3099 3100 3101 3102 3102 3103 3105 3106 3106 3107 3108 3109 3110 3111 3111 3110 3109 3109 3108 3108 3110 3111 3111 3111 3110 3109 3109 3108 3109 3109 3108 3107 3108 3106 3104 3107 3110 3111 3114 3117 3119 3119 3119 3119 3119 3120 3120 3120 3119 3119 3119 3118 3118 3117 3116 3114 3113 3113 3112 3110 3109 3109 3108 3107 3106 3105 3103 3102 3101
3067 3067 3069 3071 3073 3072 3072 3075 3079 3083 3087 3090 3092 3094 3096 3097 3098 3099 3099 3099 3100 3101 3102 3103 3104 3105 3106 3107 3107 3108 3109 3109 3108 3107 3106 3106 3107 3107 3108 3108 3108 3108 3107 3106 3106 3106 3106 3106 3105 3104 3105 3103 3102 3104 3106 3107 3111 3116 3117 3117 3117 3116 3116 3116 3116 3116 3115 3115 3115 3115 3114 3113 3112 3110 3109 3108 3107 3107 3105 3105 3104 3102 3101 3100 3098 3098 3097
3067 3067 3069 3071 3073 3073 3073 3076 3080 3083 3086 3088 3091 3093 3094 3096 3096 3097 3097 3098 3099 3101 3101 3102 3102 3103 3105 3106 3106 3105 3106 3106 3106 3105 3104 3104 3105 3105 3105 3105 3105 3105 3105 3105 3105 3104 3103 3103 3102 3102 3102 3100 3100 3103 3102 3101 3107 3113 3113 3113 3113 3112 3112 3113 3113 3113 3113 3113 3112 3111 3110 3109 3108 3106 3105 3104 3103 3102 3101 3099 3098 3098 3097 3096 3094 3093 3092
3067 3069 3070 3071 3073 3075 3077 3079 3080 3082 3084 3086 3088 3090 3092 3094 3094 3095 3094 3095 3097 3100 3100 3100 3100 3101 3102 3103 3102 3102 3103 3104 3104 3103 3102 3102 3102 3102 3102 3102 3102 3103 3103 3103 3103 3102 3101 3100 3099 3099 3100 3098 3099 3100 3098 3096 3103 3109 3109 3108 3109 3109 3109 3110 3110 3110 3110 3109 3108 3107 3106 3105 3105 3103 3102 3101 3100 3098 3097 3095 3094 3094 3093 3092 3090 3089 3087
3066 3068 3070 3071 3073 3075 3077 3079 3080 3082 3085 3086 3087 3088 3090 3090 3091 3092 3093 3093 3094 3096 3097 3097 3098 3099 3100 3100 3100 3101 3102 3102 3101 3100 3100 3100 3099 3099 3100 3099 3099 3099 3100 3100 3100 3099 3098 3098 3097 3096 3097 3096 3097 3098 3096 3095 3100 3105 3105 3105 3106 3107 3107 3107 3106 3106 3105 3104 3104 3104 3103 3103 3102 3101 3100 3098 3097 3095 3094 3092 3091 3090 3089 3088 3086 3084 3083
3065 3067 3069 3070 3072 3074 3076 3078 3080 3082 3083 3085 3086 3087 3087 3088 3089 3091 3092 3092 3091 3092 3093 3094 3096 3098 3098 3098 3098 3099 3099 3099 3098 3097 3097 3097 3097 3096 3096 3096 3096 3096 3096 3097 3097 3096 3095 3095 3094 3094 3094 3094 3094 3095 3095 3095 3097 3100 3101 3103 3105 3105 3104 3103 3102 3102 3102 3102 3102 3102 3101 3101 3099 3098 3097 3096 3094 3093 3091 3089 3088 3086 3085 3083 3082 3080 3079
3064 3066 3068 3070 3072 3074 3077 3079 3080 3082 3083 3084 3085 3085 3085 3087 3090 3091 3090 3089 3089 3090 3092 3094 3095 3096 3095 3095 3095 3096 3095 3095 3095 3095 3094 3094 3094 3093 3093 3093 3093 3093 3093 3094 3094 3093 3092 3092 3092 3091 3092 3092 3092 3093 3093 3093 3095 3097 3099 3101 3101 3101 3100 3100 3100 3100 3100 3100 3100 3100 3099 3098 3097 3095 3094 3093 3091 3090 3088 3086 3084 3082 3081 3080 3078 3076 3075
3063 3065 3067 3070 3072 3074 3077 3079 3080 3082 3084 3085 3085 3085 3085 3087 3089 3089 3088 3088 3090 3091 3092 3093 3093 3093 3092 3092 3092 3092 3092 3092 3092 3092 3091 3091 3091 3090 3090 3090 3090 3090 3090 3090 3090 3090 3090 3090 3090 3089 3089 3090 3090 3089 3089 3090 3092 3094 3096 3098 3098 3098 3098 3098 3099 3099 3098 3098 3098 3097 3096 3095 3093 3092 3091 3089 3088 3086 3084 3082 3080 3079 3077 3076 3074 3073 3071
3064 3065 3066 3069 3072 3075 3077 3078 3079 3080 3083 3084 3084 3084 3086 3087 3089 3090 3090 3090 3090 3090 3090 3090 3090 3089 3089 3089 3088 3089 3089 3089 3089 3089 3089 3088 3088 3087 3087 3087 3087 3087 3087 3087 3087 3087 3087 3087 3087 3087 3087 3087 3087 3086 3086 3088 3090 3092 3094 3095 3096 3096 3096 3096 3096 3096 3096 3095 3095 3094 3092 3091 3089 3088 3086 3085 3083 3082 3080 3078 3076 3074 3073 3072 3070 3069 3067
3064 3065 3066 3068 3071 3073 3074 3074 3076 3077 3079 3081 3083 3083 3084 3085 3087 3087 3088 3089 3089 3089 3088 3087 3087 3086 3086 3086 3085 3086 3085 3085 3086 3086 3086 3085 3085 3084 3084 3084 3084 3084 3084 3084 3084 3084 3085 3085 3085 3085 3085 3085 3084 3084 3085 3088 3089 3091 3092 3093 3093 3093 3093 3093 3093 3093 3092 3091 3090 3089 3088 3087 3085 3084 3082 3080 3079 3077 3075 3073 3072 3070 3068 3067 3066 3064 3063
3064 3064 3066 3068 3070 3071 3072 3072 3074 3075 3077 3079 3081 3081 3082 3083 3083 3084 3085 3087 3087 3087 3086 3085 3085 3084 3083 3083 3083 3083 3082 3082 3082 3082 3082 3082 3082 3082 3082 3081 3081 3081 3081 3081 3081 3081 3081 3082 3081 3082 3082 3082 3081 3082 3084 3086 3087 3088 3089 3089 3088 3088 3089 3089 3089 3089 3088 3087 3086 3085 3084 3083 3081 3080 3079 3077 3075 3073 3071 3069 3067 3065 3064 3063 3061 3060 3058
3063 3064 3065 3066 3068 3070 3071 3072 3074 3075 3076 3077 3078 3079 3079 3080 3081 3082 3083 3085 3085 3085 3084 3083 3083 3082 3081 3081 3080 3080 3079 3079 3079 3079 3079 3079 3079 3079 3079 3079 3079 3079 3079 3079 3079 3079 3079 3079 3079 3079 3080 3080 3080 3081 3083 3084 3084 3084 3085 3085 3084 3084 3085 3086 3086 3085 3084 3083 3082 3081 3080 3079 3077 3076 3075 3073 3071 3069 3066 3064 3062 3061 3059 3058 3057 3056 3054
3063 3064 3065 3065 3067 3069 3071 3072 3073 3074 3074 3075 3076 3077 3078 3079 3079 3080 3081 3082 3082 3082 3081 3080 3079 3078 3078 3077 3077 3077 3077 3076 3076 3076 3075 3075 3075 3075 3076 3076 3076 3076 3077 3077 3077 3077 3077 3078 3078 3078 3078 3079 3079 3080 3081 3081 3081 3081 3081 3081 3081 3081 3082 3082 3082 3081 3080 3079 3079 3077 3076 3075 3073 3072 3070 3069 3067 3064 3062 3060 3058 3056 3055 3054 3053 3052 3051
3063 3065 3066 3067 3068 3070 3070 3071 3072 3073 3073 3074 3074 3075 3075 3076 3077 3077 3078 3078 3078 3078 3077 3076 3075 3074 3074 3073 3073 3073 3073 3072 3073 3073 3072 3072 3073 3073 3073 3073 3074 3074 3074 3075 3076 3076 3076 3076 3075 3075 3076 3076 3077 3077 3077 3078 3078 3078 3078 3078 3079 3079 3079 3078 3077 3077 3076 3076 3075 3073 3072 3071 3069 3068 3066 3064 3062 3060 3058 3056 3054 3053 3051 3050 3049 3048 3047
3065 3066 3068 3068 3069 3069 3070 3070 3071 3072 3072 3072 3072 3072 3072 3073 3073 3073 3073 3073 3073 3073 3073 3072 3071 3071 3070 3069 3069 3069 3068 3068 3069 3069 3069 3070 3070 3070 3071 3071 3071 3072 3073 3073 3074 3074 3074 3074 3073 3073 3073 3073 3073 3073 3073 3073 3074 3074 3075 3075 3076 3076 3075 3075 3074 3073 3072 3071 3070 3069 3068 3066 3065 3063 3061 3060 3057 3055 3053 3052 3050 3049 3048 3046 3045 3044 3043
3067 3067 3068 3068 3068 3068 3069 3069 3069 3069 3069 3069 3069 3069 3069 3069 3069 3069 3069 3068 3068 3068 3068 3068 3067 3067 3066 3066 3065 3065 3064 3064 3065 3065 3065 3066 3066 3067 3068 3068 3069 3069 3070 3070 3071 3071 3071 3071 3071 3071 3070 3069 3068 3068 3068 3069 3070 3071 3071 3072 3072 3072 3072 3071 3070 3069 3068 3067 3066 3064 3063 3062 3060 3058 3057 3055 3053 3051 3050 3048 3047 3045 3044 3043 3042 3041 3040
3066 3067 3067 3067 3066 3066 3066 3066 3066 3066 3066 3066 3065 3065 3065 3065 3065 3065 3065 3064 3064 3063 3064 3064 3064 3063 3063 3063 3062 3062 3061 3061 3061 3062 3062 3063 3063 3064 3064 3065 3065 3066 3066 3066 3067 3068 3068 3068 3068 3067 3066 3065 3064 3064 3064 3064 3065 3067 3067 3068 3068 3068 3067 3066 3065 3064 3063 3062 3061 3060 3059 3057 3055 3053 3052 3050 3048 3047 3046 3044 3043 3042 3041 3041 3040 3039 3037
3065 3065 3065 3065 3064 3064 3064 3063 3063 3063 3063 3062 3062 3061 3061 3061 3061 3061 3061 3061 3060 3060 3060 3060 3059 3060 3060 3060 3060 3059 3059 3058 3058 3058 3059 3060 3060 3061 3061 3061 3062 3062 3062 3062 3063 3063 3063 3063 3063 3063 3063 3062 3062 3062 3062 3062 3062 3063 3063 3063 3063 3062 3062 3061 3060 3059 3059 3058 3057 3055 3054 3052 3050 3048 3047 3045 3044 3043 3042 3041 3040 3039 3039 3038 3037 3036 3035
3063 3062 3062 3062 3062 3061 3061 3061 3060 3060 3059 3059 3059 3058 3058 3057 3057 3057 3057 3057 3057 3057 3056 3056 3055 3056 3056 3056 3056 3057 3056 3055 3055 3055 3056 3056 3056 3057 3057 3058 3058 3058 3058 3058 3058 3058 3058 3058 3058 3059 3059 3058 3058 3058 3059 3059 3059 3059 3059 3058 3058 3057 3057 3056 3055 3055 3055 3054 3052 3051 3049 3047 3045 3044 3042 3041 3040 3040 3039 3038 3037 3036 3036 3035 3035 3034 3033
3060 3060 3060 3059 3059 3058 3058 3057 3057 3056 3056 3056 3055 3055 3055 3054 3053 3053 3053 3053 3053 3052 3052 3052 3052 3052 3052 3052 3052 3053 3053 3052 3051 3051 3051 3052 3052 3052 3053 3053 3054 3054 3054 3053 3053 3054 3054 3053 3053 3054 3054 3054 3054 3054 3054 3054 3054 3054 3053 3053 3052 3052 3052 3052 3051 3051 3050 3049 3047 3046 3044 3042 3041 3039 3038 3037 3037 3036 3036 3035 3034 3033 3033 3033 3032 3031 3030
3058 3057 3057 3057 3057 3056 3055 3055 3054 3053 3053 3053 3052 3052 3051 3050 3050 3049 3049 3049 3048 3048 3048 3048 3048 3048 3048 3048 3048 3048 3048 3048 3048 3047 3047 3047 3047 3047 3048 3048 3049 3049 3049 3049 3049 3049 3049 3049 3049 3050 3050 3050 3049 3049 3049 3049 3049 3049 3049 3048 3048 3047 3047 3047 3047 3046 3045 3044 3042 3041 3039 3038 3037 3035 3034 3034 3033 3033 3033 3032 3032 3031 3030 3030 3029 3028 3028
3055 3055 3055 3054 3054 3053 3053 3052 3051 3050 3049 3049 3048 3048 3047 3046 3046 3045 3045 3044 3043 3043 3043 3043 3043 3043 3043 3044 3044 3044 3044 3044 3044 3044 3044 3043 3043 3043 3044 3044 3044 3044 3044 3044 3045 3045 3045 3045 3045 3046 3045 3044 3044 3044 3044 3045 3045 3044 3044 3044 3043 3043 3043 3042 3042 3041 3040 3039 3037 3036 3035 3034 3033 3032 3031 3031 3030 3029 3029 3029 3029 3028 3028 3027 3027 3026 3025
3053 3052 3052 3051 3051 3050 3049 3048 3047 3046 3045 3044 3043 3042 3042 3041 3041 3040 3040 3039 3038 3038 3038 3038 3038 3038 3038 3039 3039 3039 3039 3039 3039 3039 3040 3040 3040 3040 3040 3040 3040 3040 3040 3040 3041 3041 3041 3041 3041 3041 3041 3040 3040 3040 3040 3040 3040 3040 3040 3040 3039 3039 3038 3038 3037 3036 3035 3034 3033 3033 3032 3031 3030 3029 3028 3028 3027 3027 3026 3026 3026 3026 3025 3025 3024 3024 3023
3050 3049 3048 3047 3046 3046 3045 3044 3043 3042 3041 3040 3039 3038 3037 3037 3036 3036 3035 3034 3034 3033 3033 3033 3033 3033 3033 3034 3034 3034 3034 3034 3034 3035 3035 3035 3035 3036 3036 3036 3036 3036 3037 3037 3037 3037 3037 3037 3037 3038 3038 3038 3038 3037 3037 3036 3036 3036 3036 3035 3035 3035 3034 3034 3033 3032 3031 3030 3030 3029 3029 3028 3027 3026 3026 3025 3025 3024 3023 3023 3022 3022 3022 3022 3022 3021 3021
3046 3045 3044 3043 3042 3041 3040 3039 3039 3038 3037 3037 3036 3036 3035 3034 3033 3032 3032 3031 3030 3029 3029 3029 3029 3029 3029 3030 3030 3030 3030 3030 3030 3031 3030 3030 3031 3032 3032 3033 3033 3034 3034 3035 3035 3035 3034 3034 3034 3034 3034 3034 3034 3033 3032 3032 3031 3031 3031 3031 3031 3031 3030 3030 3029 3028 3028 3027 3026 3026 3026 3025 3024 3024 3023 3022 3022 3021 3021 3020 3019 3018 3018 3018 3018 3018 3017
3043 3041 3040 3039 3037 3036 3035 3035 3034 3034 3033 3033 3033 3032 3032 3031 3031 3030 3029 3029 3028 3027 3026 3026 3026 3026 3026 3026 3026 3026 3026 3026 3026 3027 3027 3026 3025 3026 3027 3029 3030 3030 3031 3031 3031 3031 3031 3030 3030 3030 3030 3030 3030 3029 3028 3028 3028 3028 3027 3027 3027 3026 3026 3025 3025 3025 3025 3024 3024 3023 3022 3022 3022 3021 3021 3020 3019 3019 3018 3017 3016 3015 3015 3015 3015 3015 3015
3040 3038 3037 3035 3034 3033 3032 3032 3031 3031 3030 3030 3030 3030 3029 3028 3028 3027 3027 3026 3025 3024 3023 3023 3022 3022 3021 3021 3021 3022 3022 3022 3023 3023 3023 3022 3020 3021 3023 3025 3026 3027 3027 3028 3028 3028 3028 3028 3028 3028 3028 3027 3026 3025 3025 3025 3025 3024 3023 3023 3023 3022 3022 3022 3021 3021 3021 3021 3021 3020 3019 3019 3019 3019 3018 3018 3017 3016 3015 3014 3013 3013 3012 3011 3011 3011 3011
3038 3036 3035 3033 3032 3031 3030 3030 3029 3029 3028 3028 3028 3027 3027 3026 3025 3025 3024 3024 3023 3022 3021 3020 3019 3019 3018 3018 3018 3018 3019 3019 3019 3019 3019 3019 3018 3019 3021 3023 3023 3024 3024 3025 3025 3025 3026 3026 3025 3025 3025 3024 3023 3022 3022 3021 3021 3021 3020 3020 3020 3020 3019 3019 3018 3018 3018 3018 3017 3017 3016 3016 3015 3015 3015 3014 3013 3012 3011 3011 3010 3009 3008 3008 3007 3007 3007
3036 3035 3034 3032 3031 3030 3029 3028 3028 3027 3027 3026 3026 3025 3025 3024 3024 3023 3023 3022 3021 3020 3019 3018 3018 3017 3017 3016 3016 3016 3016 3016 3016 3016 3017 3017 3017 3018 3019 3020 3020 3020 3020 3021 3021 3022 3022 3022 3021 3021 3021 3021 3020 3020 3019 3018 3018 3018 3018 3018 3017 3017 3016 3016 3016 3015 3015 3014 3014 3013 3013 3012 3011 3011 3010 3010 3009 3009 3008 3007 3006 3006 3005 3004 3003 3003 3003
3035 3034 3033 3032 3030 3029 3028 3027 3027 3026 3025 3025 3024 3024 3023 3023 3023 3022 3022 3021 3020 3019 3018 3017 3016 3016 3015 3015 3015 3015 3014 3014 3014 3015 3015 3016 3016 3016 3017 3017 3017 3017 3017 3018 3018 3018 3019 3019 3018 3018 3018 3018 3018 3017 3017 3016 3016 3015 3015 3015 3015 3014 3014 3014 3013 3012 3012 3011 3010 3010 3009 3008 3007 3006 3006 3005 3005 3004 3004 3003 3002 3002 3001 3000 2999 2999 2999
3034 3033 3032 3031 3030 3029 3028 3027 3026 3025 3024 3024 3023 3022 3022 3022 3022 3021 3020 3019 3018 3017 3017 3016 3015 3015 3015 3015 3014 3014 3013 3013 3013 3013 3013 3013 3014 3014 3014 3014 3015 3015 3015 3016 3016 3016 3016 3016 3016 3016 3015 3015 3015 3015 3014 3014 3013 3013 3013 3013 3013 3012 3012 3012 3011 3010 3009 3008 3007 3006 3005 3004 3003 3002 3001 3000 3000 2999 2999 2998 2998 2997 2997 2997 2996 2996 2996
3033 3032 3032 3031 3030 3029 3028 3027 3026 3025 3024 3023 3023 3022 3022 3021 3021 3020 3019 3018 3017 3016 3016 3015 3014 3014 3014 3014 3014 3013 3013 3013 3012 3012 3012 3012 3012 3012 3012 3012 3012 3012 3013 3013 3013 3013 3013 3013 3013 3013 3013 3013 3012 3012 3012 3011 3011 3011 3011 3011 3010 3010 3010 3009 3009 3008 3007 3005 3004 3002 3001 3000 2999 2998 2997 2996 2996 2995 2995 2995 2994 2994 2994 2993 2993 2993 2993
3033 3033 3032 3031 3030 3030 3029 3028 3027 3026 3025 3024 3024 3023 3022 3022 3021 3020 3019 3018 3017 3016 3015 3015 3014 3014 3013 3013 3012 3012 3012 3012 3012 3011 3011 3010 3010 3010 3010 3010 3010 3010 3011 3011 3011 3011 3011 3011 3011 3011 3011 3010 3010 3010 3009 3009 3008 3008 3008 3008 3007 3007 3007 3006 3006 3005 3003 3002 3001 2999 2998 2997 2996 2994 2993 2992 2991 2991 2991 2991 2991 2991 2991 2990 2990 2990 2990
3034 3033 3032 3032 3031 3029 3028 3028 3027 3026 3025 3025 3024 3023 3022 3021 3020 3019 3019 3018 3017 3016 3015 3015 3014 3013 3013 3012 3012 3011 3011 3011 3011 3010 3010 3009 3009 3009 3009 3009 3009 3009 3009 3010 3010 3010 3010 3010 3009 3009 3008 3008 3007 3007 3007 3006 3006 3005 3005 3005 3004 3003 3003 3002 3001 3000 2999 2998 2996 2995 2994 2993 2992 2990 2989 2988 2987 2987 2987 2987 2987 2987 2987 2987 2986 2987 2987
3034 3033 3032 3031 3030 3029 3028 3027 3026 3025 3025 3024 3023 3022 3021 3021 3020 3019 3018 3017 3017 3016 3015 3014 3014 3013 3012 3012 3011 3011 3010 3010 3009 3009 3009 3008 3008 3008 3008 3008 3008 3008 3008 3008 3008 3008 3008 3007 3007 3006 3006 3005 3005 3004 3004 3003 3003 3002 3002 3001 3000 2999 2999 2998 2997 2996 2994 2993 2991 2990 2989 2988 2987 2985 2984 2983 2983 2983 2982 2983 2983 2983 2983 2983 2983 2983 2984
3033 3032 3031 3030 3029 3028 3027 3026 3025 3024 3024 3023 3022 3021 3020 3019 3019 3018 3017 3016 3016 3015 3014 3014 3013 3012 3012 3011 3010 3010 3009 3009 3008 3007 3007 3006 3006 3006 3006 3006 3006 3006 3006 3006 3006 3005 3005 3005 3004 3004 3003 3003 3002 3002 3001 3001 3000 2999 2998 2997 2996 2995 2995 2994 2993 2991 2990 2988 2986 2985 2984 2983 2982 2981 2980 2979 2979 2979 2978 2979 2979 2979 2979 2979 2979 2980 2980
3032 3031 3030 3029 3028 3027 3026 3025 3024 3023 3022 3021 3021 3020 3019 3018 3017 3016 3015 3015 3015 3014 3013 3012 3012 3011 3010 3010 3009 3008 3008 3007 3007 3006 3005 3005 3004 3003 3003 3004 3004 3004 3003 3003 3003 3003 3003 3002 3002 3001 3000 3000 2999 2999 2998 2998 2997 2996 2995 2994 2993 2991 2990 2989 2988 2987 2985 2984 2982 2980 2979 2979 2978 2977 2976 2975 2975 2975 2975 2975 2975 2975 2975 2976 2976 2976 2977
3031 3030 3029 3028 3027 3026 3025 3024 3023 3022 3021 3020 3019 3018 3017 3016 3015 3014 3014 3013 3013 3012 3011 3010 3010 3009 3008 3007 3007 3006 3006 3005 3005 3004 3003 3003 3002 3002 3001 3001 3001 3001 3001 3001 3000 3000 2999 2999 2999 2998 2998 2997 2997 2996 2995 2994 2994 2993 2992 2990 2989 2988 2986 2985 2984 2983 2981 2980 2978 2976 2975 2974 2974 2973 2972 2972 2971 2971 2971 2971 2971 2971 2971 2972 2973 2973 2974